Regional Weather Roundup
Issued by NWS

Home | Current Version | Previous Version | Graphics & Text | Print | Product List | Glossary Off
Versions: 1 2 3 4 5 6 7 8 9 10 11 12 13 14 15 16 17 18 19 20 21 22 23 24 25 26 27 28 29 30 31 32 33 34 35 36 37 38 39 40 41 42 43 44 45 46 47 48 49 50

268
ASUS43 KDMX 262203
RWRIA

WEATHER ROUNDUP FOR IOWA
NATIONAL WEATHER SERVICE DES MOINES IA
500 PM CDT MON SEP 26 2016

NOTE: "FAIR" INDICATES FEW OR NO CLOUDS BELOW 12,000 FEET WITH NO
SIGNIFICANT WEATHER AND/OR OBSTRUCTIONS TO VISIBILITY.

* - THESE STATIONS ARE NOT NWS STATIONS...THUS NOT UNDER NWS
QUALITY CONTROL.  THEY ALSO DO NOT REPORT WEATHER SUCH
AS PRECIPITATION OR FOG.

IAZ001>003-012>014-020>022-031>034-043>046-262300-
   NORTHWEST IOWA

CITY           SKY/WX    TMP DP  RH WIND       PRES   REMARKS
CARROLL *      SUNNY     72  37  28 NW17G29   30.07F
CHEROKEE *     SUNNY     70  36  28 NW15G29   30.06S
DENISON *      SUNNY     72  43  35 NW20      30.06F
LE MARS *      SUNNY     72  39  30 NW14G24   30.07F
ORANGE CITY *  SUNNY     70  41  35 NW15G25   30.06F
SHELDON *      SUNNY     70  36  28 NW17G29   30.04S
SIOUX CITY     MOSUNNY   74  42  31 NW15G25   30.06F
SPENCER        SUNNY     70  35  27 W23G43    30.03F
STORM LAKE *   SUNNY     70  36  28 W18G29    30.06F
$$

IAZ055>058-069>071-079>083-090>094-262300-
   SOUTHWEST IOWA

CITY           SKY/WX    TMP DP  RH WIND       PRES   REMARKS
ATLANTIC *     SUNNY     72  41  33 NW14G21   30.08F
AUDUBON *      MOSUNNY   72  39  30 NW13G20   30.09F
CLARINDA *       N/A     75  41  29 MISG      30.12F
COUNCIL BLFS * SUNNY     75  43  31 VRB7      30.10F
CRESTON *      SUNNY     72  39  30 NW15G26   30.10F
HARLAN  *      MOSUNNY   73  41  31 NW15G23   30.12F
LAMONI         SUNNY     73  42  32 W14       30.10F
RED OAK *      SUNNY     75  41  29 W8G17     30.10F
SHENANDOAH *   SUNNY     75  41  29 NW15G21   30.11F
$$

IAZ047>049-059>061-072>074-084-262300-
   CENTRAL IOWA

CITY           SKY/WX    TMP DP  RH WIND       PRES   REMARKS
AMES           SUNNY     72  36  26 W22G33    30.03F
ANKENY *         N/A    N/A N/A N/A MISG        N/A
BOONE *        SUNNY     72  36  26 W18G25    30.03F
CHARITON *       N/A     72  41  33 W16       30.08F
DES MOINES     MOSUNNY   74  37  26 W16       30.04F
GRINNELL*      SUNNY     71  37  28 W20G26    30.03F
KNOXVILLE *    SUNNY     72  36  26 W20G29    30.05F
MARSHALLTOWN   SUNNY     70  37  29 W26G33    30.01F
NEWTON *       SUNNY     72  34  25 W14G28    30.03F
PELLA *        SUNNY     73  34  24 W17G25    30.06F
PERRY *          N/A     73  33  22 NW14G23   30.06F
$$

IAZ004>006-015-016-023>025-035-036-262300-
   NORTH CENTRAL IOWA

CITY           SKY/WX    TMP DP  RH WIND       PRES   REMARKS
ALGONA *       SUNNY     70  32  24 NW20G26   30.01F
CLARION *      SUNNY     70  34  26 NW20G30   30.01F
ESTHERVILLE    SUNNY     68  28  22 W21G30    30.00F
FORT DODGE *   SUNNY     70  39  32 W16G25    30.03F
MASON CITY     SUNNY     67  31  26 W20G31    29.99F
FOREST CITY *    N/A     68  32  26 NW17      29.99S
WEBSTER CITY * SUNNY     72  37  28 W21       30.00F
IOWA FALLS *     N/A     71  35  26 W17G29    30.02F
$$

IAZ007>011-017>019-026>030-037>042-050>054-066-262300-
   NORTHEAST IOWA

CITY           SKY/WX    TMP DP  RH WIND       PRES   REMARKS
CEDAR RAPIDS   SUNNY     70  38  31 W25G33    29.99F
CHARLES CITY * SUNNY     68  28  22 W20G32    29.97F
CLINTON *      SUNNY     70  31  23 W21G32    29.97F
DECORAH *      SUNNY     66  32  28 W10G26    29.92F
DUBUQUE        SUNNY     66  33  29 W21G31    29.95F
MONTICELLO *   SUNNY     70  30  23 W20G29    29.96F
OELWEIN *      SUNNY     68  34  28 W20G35    29.97S
WATERLOO       SUNNY     69  31  24 W20G30    29.97F
$$

IAZ064-065-067-068-078-262300-
   EAST CENTRAL IOWA

CITY           SKY/WX    TMP DP  RH WIND       PRES   REMARKS
DAVENPORT      SUNNY     70  32  24 W22G30    29.99F
IOWA CITY      SUNNY     71  38  29 W14       30.01F
MUSCATINE *    SUNNY     72  34  25 W22G29    30.01S
QUAD CITIES    SUNNY     71  32  23 W18G28    29.99F
$$

IAZ062-063-075>077-085>089-095>099-262300-
   SOUTHEAST IOWA

CITY           SKY/WX    TMP DP  RH WIND       PRES   REMARKS
BURLINGTON     SUNNY     72  36  26 W14G24    30.04F
FAIRFIELD *    SUNNY     72  32  23 W20G32    30.04S
FORT MADISON *   N/A     72  36  26 W12G20    30.06F
KEOKUK *       SUNNY     72  36  26 W17       30.06S
OSKALOOSA *      N/A     73  32  22 W22G29    30.05F
OTTUMWA        LGT RAIN  71  35  26 W15G32    30.05F
WASHINGTON *     N/A    N/A N/A N/A MISG        N/A
$$

ABBREVIATIONS USED IN REMARKS
   TC - TEMPERATURES IN CELSIUS
  WCI - WIND CHILL INDEX
   HX - HEAT INDEX
  VSB - VISIBILITY
$$





USA.gov is the U.S. government's official web portal to all federal, state and local government web resources and services.